Simultaneous Nadir Overpasses (SNOs) Predictions

Prediction of SNOs between NOAA-20 and AQUA Satellite Orbit:

Table of predicted SNOs for the next 14.0 days since TLE Epoch: 6/15/2018
Index Date (NOAA-20) Time (NOAA-20) Lat,Lon (NOAA-20) SZA (NOAA-20 ) Date (AQUA) Time (AQUA) Lat,Lon (AQUA) SZA (AQUA ) Distance(km) Time Diff (sec)
1 06/16/2018 14:29:08 76.01,-158.40 74.42 06/16/2018 14:30:15 76.00,-158.45 74.38 1.48 67
2 06/16/2018 15:19:36 -76.81, 11.83 106.59 06/16/2018 15:19:26 -76.81, 11.86 106.59 0.72 10
3 06/19/2018 06:45:55 76.44, -41.10 73.85 06/19/2018 06:46:34 76.44, -41.19 73.84 2.42 39
4 06/19/2018 07:36:26 -77.09, 128.77 107.00 06/19/2018 07:35:48 -77.09, 128.78 106.97 0.22 38
5 06/21/2018 23:02:51 76.47, 74.75 73.83 06/21/2018 23:03:01 76.47, 74.83 73.80 2.21 10
6 06/21/2018 23:53:15 -77.42,-114.06 107.41 06/21/2018 23:52:09 -77.41,-114.09 107.35 0.90 66
7 06/24/2018 14:29:14 -75.98, 21.50 105.51 06/24/2018 14:30:14 -75.98, 21.49 105.56 0.13 60
8 06/24/2018 15:19:38 76.89,-167.86 73.35 06/24/2018 15:19:20 76.89,-167.84 73.36 0.51 18
9 06/27/2018 06:45:59 -76.46, 138.94 106.00 06/27/2018 06:46:31 -76.45, 138.88 106.01 1.60 32




NCC Satellite Simultaneous Nadir Overpasses (SNOs) Prediction Service
